Location: Blanot
(47.1713°N, 4.2340°E)
Time: 14:10:39
(UTC+00:00)

X-37B - Pass Details

Date: 13 March 2021
Orbit: 380 x 394 km, 45.0° (Epoch: 07 April)

Event Time Altitude Azimuth Distance (km) Brightness Sun altitude
Rises 18:54:07 0° 230° (SW) 2,263 5.1 -12.4°
Reaches altitude 10° 18:56:21 10° 217° (SW) 1,414 3.8 -12.7°
Maximum altitude 18:59:06 27° 157° (SSE) 788 1.8 -13.2°
Enters shadow 19:00:00 23° 128° (SE) 876 1.8 -13.3°
